AirNav   BOSE ProFlight Aviation Headset
 
 1167 users online  

80OI Cleveland Clinic South Pointe Heliport
Northfield, Ohio, USA

GOING TO NORTHFIELD?


FAA INFORMATION EFFECTIVE 21 JUNE 2018

Location

FAA Identifier: 80OI
Lat/Long: 41-18-58.6700N / 081-34-07.8800W
41-18.977833N / 081-34.131333W
41.3162972 / -81.5688556
(estimated)
Elevation: 868 ft. / 265 m (estimated)
Variation: 06W (1985)
From city: 2 miles E of NORTHFIELD, OH
Time zone: UTC -4 (UTC -5 during Standard Time)
Zip code: 44067

Heliport Operations

Heliport use: Private use, MEDICAL USE.
Activation date: 07/1987
Control tower: no
ARTCC: CLEVELAND CENTER
FSS: CLEVELAND FLIGHT SERVICE STATION
Attendance: CONTINUOUS
Wind indicator: yes
Segmented circle: yes

Heliport Communications

WX ASOS at BKL (13 nm NW): 125.25 (216-241-6904)
WX ASOS at CLE (14 nm NW): PHONE 216-267-9955
WX AWOS-3 at POV (16 nm SE): 118.675 (330-298-9353)
WX ASOS at AKR (17 nm S): 126.825 (330-724-4237)

Nearby radio navigation aids

VOR radial/distance  VOR name  Freq  Var
ACOr311/20.8AKRON VOR/DME114.4004W
CXRr242/21.9CHARDON VOR/DME112.7005W
DJBr100/26.8DRYER VOR/DME113.6005W
BSVr354/35.1BRIGGS VOR/DME112.4004W

 
NDB name  Hdg/Dist  Freq  Var  ID
LAKELAND209/23.626308WLQL .-.. --.- .-..

Heliport Services

Runway Information

Helipad H1

Dimensions: 60 x 60 ft. / 18 x 18 m
Surface: asphalt
Latitude: 41-18.977833N
Longitude: 081-34.131333W
Elevation: 868.0 ft.
Traffic pattern: leftleft

Heliport Ownership and Management from official FAA records

Ownership: Privately-owned
Owner: BRENTWOOD HOSPITAL
4110 WARRENSVILLE CENTER RD
WARRENSVILLE HTS, OH 44122
Phone 216-283-2900
Manager: LISA FEICHT
9500 EUCLID AVE
CLEVELAND, OH 44195
Phone (216) 445-0301

Additional Remarks

A52-H1 +80' HI TENSION TWRS 1000' E.

Instrument Procedures

There are no published instrument procedures at 80OI.

Some nearby airports with instrument procedures:

1G3 - Kent State University Airport (12 nm SE)
KBKL - Burke Lakefront Airport (13 nm NW)
KCLE - Cleveland-Hopkins International Airport (14 nm NW)
1G5 - Medina Municipal Airport (14 nm SW)
KCGF - Cuyahoga County Airport (15 nm N)
KPOV - Portage County Airport (16 nm SE)
KAKR - Akron Fulton International Airport (17 nm S)
 
Loc | Ops | Rwys | IFR | FBO | Links
Com | Nav | Svcs | Stats | Notes

AirNav Hotels Sweepstakes
 
Area around 80OI (Cleveland Clinic South Pointe Heliport)
 
Road maps at: MapQuest Bing Google
 
Aerial photo
No photo
 
Sectional chart

 
Airport distance calculator
Flying to Cleveland Clinic South Pointe Heliport? Find the distance to fly.

From to 80OI

Sunrise and sunset
Times for 22-Jun-2018
 Local
(UTC-4)
 Zulu
(UTC)
Morning civil twilight05:2009:20
Sunrise05:5409:54
Sunset21:0201:02
Evening civil twilight21:3601:36

Current date and time
Zulu (UTC)  22-Jun-2018 13:08:31
Local (UTC-4)  22-Jun-2018 09:08:31
 
METAR
KBKL 
14nm N 
221253Z 10014G18KT 10SM OVC090 22/15 A2980 RMK AO2 SLP089 T02170150
KCLE 
14nm NW 
221251Z 10011KT 10SM SCT025 BKN095 22/16 A2982 RMK AO2 SLP093 T02220161 $
KPOV 
16nm SE 
221257Z AUTO 09012KT 10SM BKN019 OVC080 18/16 A2984 RMK AO2 T01810157 PWINO
KCGF 
16nm N 
221245Z 12015KT 10SM BKN060 OVC100 22/16 A2983
KAKR 
18nm S 
221254Z AUTO 10007G14KT 070V140 10SM OVC015 20/17 A2981 RMK AO2 RAB03E23 SLP087 P0000 T02000167 $
KLNN 
23nm NE 
221255Z AUTO 12010KT 10SM BKN100 21/13 A2983 RMK AO1 T02050132
KCAK 
25nm S 
221251Z 11013KT 10SM OVC013 19/16 A2981 RMK AO2 RAE38 SLP087 P0001 T01890161 $
TAF
KCLE 
14nm NW 
221137Z 2212/2318 10010KT P6SM VCSH BKN070 FM221500 11011KT P6SM VCSH BKN025 OVC050 TEMPO 2219/2221 3SM -TSRA OVC012CB FM222200 12012KT P6SM BKN015 OVC025 FM231100 16008KT P6SM SCT010 BKN035 FM231400 19008KT P6SM VCSH OVC012 PROB30 2314/2315 4SM -TSRA OVC008CB
NOTAMs
Click for the latest NOTAMs
NOTAMs are issued by the DoD/FAA and will open in a separate window not controlled by AirNav.

 

 
 

Would you like to see your business listed on this page?

 If your business provides an interesting product or service to pilots, flight crews, aircraft, or users of the Cleveland Clinic South Pointe Heliport, you should consider listing it here.  To start the listing process, click on the button below
 
Add a business
 

Other Pages about Cleveland Clinic South Pointe Heliport

Update a link
 
Copyright © AirNav, LLC. All rights reserved. Privacy Policy  Contact